When you browse on this site, cookies collect data to enhance your experience and personalize the content and advertising you see.
Visit our Privacy Policy to learn more. By continuing to use the site, you agree to this use of cookies and data.
  • In Portugal
  • List of Countries
  • For 7 days
  • Water Temperature
  • Satellite Maps
  • Weather Map
  • Weather Widgets
  • user-avatar
    Login

    Hourly Weather Kyrdzhali

    Today, 22 April, Monday

    Time Temperature Precipitation Wind Pressure Humidity
    00:00 +8°C° 0 mm 1 mps 730 mmHg 75%
    01:00 +7°C° 0 mm 1 mps 730 mmHg 76%
    02:00 +7°C° 0 mm 1 mps 730 mmHg 73%
    03:00 +7°C° 0 mm 1 mps 730 mmHg 73%
    04:00 +7°C° 0 mm 1 mps 729 mmHg 73%
    05:00 +7°C° 0 mm 1 mps 729 mmHg 73%
    06:00 +9°C° 0 mm 1 mps 730 mmHg 68%
    07:00 +10°C° 0 mm 1 mps 730 mmHg 64%
    08:00 +12°C° 0 mm 0 mps 730 mmHg 56%
    09:00 +14°C° 0 mm 1 mps 730 mmHg 54%
    10:00 +15°C° 0 mm 2 mps 730 mmHg 51%
    11:00 +17°C° 0 mm 3 mps 730 mmHg 49%
    12:00 +17°C° 0.2 mm 3 mps 730 mmHg 50%
    13:00 +17°C° 0.2 mm 4 mps 730 mmHg 52%
    14:00 +18°C° 0.2 mm 4 mps 730 mmHg 53%
    15:00 +17°C° 0.2 mm 4 mps 730 mmHg 55%
    16:00 +17°C° 0.2 mm 4 mps 729 mmHg 57%
    17:00 +15°C° 0.2 mm 5 mps 729 mmHg 59%
    18:00 +13°C° 0 mm 4 mps 729 mmHg 64%
    19:00 +12°C° 0 mm 3 mps 729 mmHg 68%
    20:00 +10°C° 0 mm 3 mps 729 mmHg 73%
    21:00 +10°C° 0 mm 3 mps 730 mmHg 75%
    22:00 +9°C° 0 mm 3 mps 730 mmHg 76%
    23:00 +8°C° 0 mm 3 mps 731 mmHg 77%

    Tomorrow, 23 April, Tuesday

    Time Temperature Precipitation Wind Pressure Humidity
    00:00 +8°C° 0 mm 2 mps 731 mmHg 76%
    01:00 +8°C° 0 mm 2 mps 731 mmHg 74%
    02:00 +8°C° 0 mm 2 mps 731 mmHg 73%
    03:00 +8°C° 0 mm 2 mps 731 mmHg 71%
    04:00 +8°C° 0 mm 2 mps 731 mmHg 69%
    05:00 +8°C° 0 mm 2 mps 731 mmHg 67%
    06:00 +9°C° 0.4 mm 1 mps 731 mmHg 70%
    07:00 +9°C° 0.4 mm 1 mps 731 mmHg 73%
    08:00 +9°C° 0.4 mm 1 mps 732 mmHg 76%
    09:00 +10°C° 0.4 mm 1 mps 732 mmHg 73%
    10:00 +10°C° 0.4 mm 2 mps 732 mmHg 71%
    11:00 +12°C° 0.4 mm 2 mps 732 mmHg 69%
    12:00 +12°C° 0 mm 3 mps 732 mmHg 62%
    13:00 +14°C° 0 mm 4 mps 732 mmHg 56%
    14:00 +17°C° 0 mm 4 mps 732 mmHg 49%
    15:00 +15°C° 0 mm 4 mps 732 mmHg 52%
    16:00 +15°C° 0 mm 4 mps 732 mmHg 54%
    17:00 +14°C° 0 mm 4 mps 731 mmHg 57%
    18:00 +13°C° 0 mm 4 mps 731 mmHg 62%
    19:00 +12°C° 0 mm 3 mps 731 mmHg 67%
    20:00 +10°C° 0 mm 2 mps 731 mmHg 73%
    21:00 +10°C° 0.2 mm 2 mps 732 mmHg 76%
    22:00 +9°C° 0.2 mm 2 mps 732 mmHg 79%
    23:00 +9°C° 0.2 mm 2 mps 732 mmHg 83%

    Day after tomorrow, 24 April, Wednesday

    Time Temperature Precipitation Wind Pressure Humidity
    00:00 +9°C° 0.2 mm 2 mps 732 mmHg 84%
    01:00 +8°C° 0.2 mm 2 mps 732 mmHg 85%
    02:00 +8°C° 0.2 mm 2 mps 732 mmHg 86%
    03:00 +9°C° 0 mm 1 mps 731 mmHg 86%
    04:00 +8°C° 0 mm 1 mps 731 mmHg 86%
    05:00 +8°C° 0 mm 1 mps 731 mmHg 86%
    06:00 +10°C° 0 mm 1 mps 732 mmHg 79%
    07:00 +11°C° 0 mm 1 mps 732 mmHg 73%
    08:00 +13°C° 0 mm 1 mps 732 mmHg 67%
    09:00 +15°C° 0 mm 1 mps 732 mmHg 62%
    10:00 +17°C° 0 mm 2 mps 733 mmHg 57%
    11:00 +18°C° 0 mm 2 mps 733 mmHg 53%
    12:00 +19°C° 0 mm 3 mps 733 mmHg 52%
    13:00 +20°C° 0 mm 3 mps 733 mmHg 51%
    14:00 +21°C° 0 mm 3 mps 733 mmHg 50%
    15:00 +21°C° 0 mm 3 mps 732 mmHg 53%
    16:00 +20°C° 0 mm 3 mps 732 mmHg 55%
    17:00 +20°C° 0 mm 3 mps 732 mmHg 58%
    18:00 +18°C° 0 mm 2 mps 732 mmHg 67%
    19:00 +16°C° 0 mm 1 mps 732 mmHg 75%
    20:00 +13°C° 0 mm 1 mps 732 mmHg 84%
    21:00 +13°C° 0 mm 1 mps 732 mmHg 86%
    22:00 +12°C° 0 mm 1 mps 732 mmHg 87%
    23:00 +12°C° 0 mm 1 mps 732 mmHg 89%

    25 April, Thursday

    Time Temperature Precipitation Wind Pressure Humidity
    00:00 +11°C° 0 mm 1 mps 732 mmHg 90%
    01:00 +11°C° 0 mm 1 mps 732 mmHg 91%
    02:00 +10°C° 0 mm 1 mps 732 mmHg 92%
    03:00 +10°C° 0 mm 1 mps 732 mmHg 93%
    04:00 +10°C° 0 mm 1 mps 732 mmHg 94%
    05:00 +9°C° 0 mm 1 mps 732 mmHg 95%
    06:00 +11°C° 0 mm 1 mps 732 mmHg 90%
    07:00 +12°C° 0 mm 1 mps 733 mmHg 85%
    08:00 +14°C° 0 mm 1 mps 733 mmHg 80%
    09:00 +15°C° 0 mm 1 mps 733 mmHg 73%
    10:00 +17°C° 0 mm 2 mps 733 mmHg 67%
    11:00 +19°C° 0 mm 2 mps 733 mmHg 60%
    12:00 +20°C° 0 mm 2 mps 733 mmHg 58%
    13:00 +21°C° 0 mm 2 mps 733 mmHg 55%
    14:00 +21°C° 0 mm 2 mps 733 mmHg 53%
    15:00 +21°C° 0 mm 2 mps 732 mmHg 55%
    16:00 +21°C° 0 mm 2 mps 732 mmHg 58%
    17:00 +21°C° 0 mm 2 mps 732 mmHg 60%
    18:00 +19°C° 0 mm 2 mps 732 mmHg 67%
    19:00 +17°C° 0 mm 2 mps 732 mmHg 74%
    20:00 +15°C° 0 mm 1 mps 732 mmHg 81%
    21:00 +15°C° 0 mm 1 mps 732 mmHg 84%
    22:00 +14°C° 0 mm 1 mps 732 mmHg 87%
    23:00 +13°C° 0 mm 1 mps 732 mmHg 90%

    26 April, Friday

    Time Temperature Precipitation Wind Pressure Humidity
    00:00 +13°C° 0 mm 1 mps 731 mmHg 91%
    01:00 +13°C° 0 mm 1 mps 731 mmHg 92%
    02:00 +12°C° 0 mm 1 mps 731 mmHg 93%
    03:00 +12°C° 0 mm 1 mps 731 mmHg 93%
    04:00 +11°C° 0 mm 1 mps 731 mmHg 93%
    05:00 +11°C° 0 mm 1 mps 730 mmHg 94%
    06:00 +12°C° 0 mm 1 mps 731 mmHg 89%
    07:00 +13°C° 0 mm 1 mps 731 mmHg 85%
    08:00 +15°C° 0 mm 1 mps 731 mmHg 80%
    09:00 +16°C° 0 mm 2 mps 731 mmHg 76%
    10:00 +18°C° 0 mm 2 mps 731 mmHg 71%
    11:00 +19°C° 0 mm 2 mps 731 mmHg 66%
    12:00 +20°C° 0 mm 2 mps 731 mmHg 65%
    13:00 +20°C° 0 mm 2 mps 731 mmHg 64%
    14:00 +21°C° 0 mm 2 mps 730 mmHg 63%
    15:00 +21°C° 0.1 mm 2 mps 730 mmHg 63%
    16:00 +21°C° 0.1 mm 2 mps 730 mmHg 64%
    17:00 +21°C° 0.1 mm 2 mps 729 mmHg 65%
    18:00 +19°C° 0 mm 2 mps 729 mmHg 71%
    19:00 +18°C° 0 mm 1 mps 729 mmHg 77%
    20:00 +16°C° 0 mm 1 mps 729 mmHg 83%
    21:00 +15°C° 0 mm 1 mps 729 mmHg 84%
    22:00 +14°C° 0 mm 1 mps 729 mmHg 86%
    23:00 +13°C° 0 mm 1 mps 729 mmHg 88%

    27 April, Saturday

    Time Temperature Precipitation Wind Pressure Humidity
    00:00 +11°C° 0 mm 0 mps 729 mmHg 87%
    01:00 +11°C° 0 mm 0 mps 729 mmHg 86%
    02:00 +10°C° 0 mm 0 mps 728 mmHg 85%
    03:00 +10°C° 0 mm 0 mps 728 mmHg 84%
    04:00 +10°C° 0 mm 0 mps 728 mmHg 83%
    05:00 +10°C° 0 mm 0 mps 728 mmHg 82%
    06:00 +11°C° 0 mm 0 mps 728 mmHg 77%
    07:00 +14°C° 0 mm 1 mps 728 mmHg 72%
    08:00 +15°C° 0 mm 1 mps 728 mmHg 67%
    09:00 +18°C° 0 mm 1 mps 728 mmHg 64%
    10:00 +18°C° 0 mm 2 mps 728 mmHg 60%
    11:00 +20°C° 0 mm 2 mps 728 mmHg 57%
    12:00 +21°C° 0 mm 2 mps 728 mmHg 56%
    13:00 +21°C° 0 mm 3 mps 727 mmHg 54%
    14:00 +22°C° 0 mm 3 mps 727 mmHg 53%
    15:00 +22°C° 0.1 mm 3 mps 727 mmHg 55%
    16:00 +21°C° 0.1 mm 3 mps 726 mmHg 57%
    17:00 +21°C° 0.1 mm 3 mps 726 mmHg 58%
    18:00 +19°C° 0 mm 3 mps 726 mmHg 64%
    19:00 +17°C° 0 mm 2 mps 726 mmHg 70%
    20:00 +15°C° 0 mm 2 mps 725 mmHg 76%
    21:00 +14°C° 0 mm 2 mps 725 mmHg 77%
    22:00 +14°C° 0 mm 2 mps 725 mmHg 78%
    23:00 +13°C° 0 mm 1 mps 725 mmHg 80%
    Show more